This is the latest recevied weather packets stored in our database for station/object KM4NDN. If no packets are shown the sender has not sent any weather packets the latest 10 day(s).
| Time | Temp. | Humidity | Pressure | Rain* | Wind** | Luminosity | Snow |
|---|---|---|---|---|---|---|---|
| 1777705739 | 3.89° C | 95% | 1014 hPa | 0 mm | - | 0 W/m² | - |
| 1777705436 | 3.89° C | 95% | 1014.1 hPa | 0 mm | - | 0 W/m² | - |
| 1777705135 | 3.89° C | 95% | 1014.1 hPa | 0 mm | - | 0 W/m² | - |
| 1777704833 | 3.89° C | 95% | 1014.2 hPa | 0 mm | - | 0 W/m² | - |
| 1777704530 | 3.33° C | 95% | 1014.2 hPa | 0 mm | - | 0 W/m² | - |
| 1777704228 | 3.33° C | 95% | 1014.4 hPa | 0 mm | - | 0 W/m² | - |
| 1777703925 | 3.33° C | 95% | 1014.2 hPa | 0 mm | - | 0 W/m² | - |
| 1777703623 | 3.33° C | 95% | 1014.2 hPa | 0 mm | - | 0 W/m² | - |
| 1777703320 | 3.33° C | 95% | 1014.3 hPa | 0 mm | - | 0 W/m² | - |
| 1777703017 | 3.33° C | 94% | 1014.3 hPa | 0 mm | - | 0 W/m² | - |
| 1777702716 | 3.33° C | 94% | 1014.3 hPa | 0 mm | - | 0 W/m² | - |
| 1777702413 | 3.33° C | 94% | 1014.4 hPa | 0 mm | - | 0 W/m² | - |
| 1777702109 | 3.33° C | 94% | 1014.4 hPa | 0 mm | - | 0 W/m² | - |
| 1777701804 | 3.33° C | 93% | 1014.4 hPa | 0 mm | - | 0 W/m² | - |
| 1777701502 | 3.33° C | 93% | 1014.6 hPa | 0 mm | - | 0 W/m² | - |
| 1777701200 | 3.89° C | 93% | 1014.7 hPa | 0 mm | - | 0 W/m² | - |
| 1777700899 | 3.89° C | 92% | 1014.6 hPa | 1.78 mm | - | 0 W/m² | - |
| 1777700597 | 3.89° C | 92% | 1014.5 hPa | 1.78 mm | - | 0 W/m² | - |
| 1777700294 | 3.89° C | 92% | 1014.6 hPa | 4.32 mm | - | 0 W/m² | - |
| 1777699991 | 4.44° C | 92% | 1014.6 hPa | 8.89 mm | - | 0 W/m² | - |
| 1777699689 | 4.44° C | 92% | 1015 hPa | 8.89 mm | - | 0 W/m² | - |
| 1777699386 | 4.44° C | 91% | 1015 hPa | 7.87 mm | - | 0 W/m² | - |
| 1777699084 | 4.44° C | 90% | 1015 hPa | 7.87 mm | - | 0 W/m² | - |
| 1777698783 | 4.44° C | 90% | 1015 hPa | 6.1 mm | - | 0 W/m² | - |
| 1777698478 | 5° C | 90% | 1015.1 hPa | 3.05 mm | - | 0 W/m² | - |
* Rain latest hour (hover to see other rain measurements)
** Current wind speed in m/s (hover to see current wind gust speed)